TimeCST,TemperatureF,Dew PointF,Humidity,Sea Level PressureIn,VisibilityMPH,Wind Direction,Wind SpeedMPH,Gust SpeedMPH,PrecipitationIn,Events,Conditions,WindDirDegrees,DateUTC
12:15 AM,26.6,24.8,93,30.02,10.0,WNW,11.5,-,N/A,,Clear,290,2012-11-15 06:15:00
12:35 AM,26.6,24.8,93,30.03,10.0,WNW,13.8,-,N/A,,Clear,300,2012-11-15 06:35:00
12:55 AM,24.8,24.8,100,30.05,10.0,NW,12.7,-,N/A,,Clear,310,2012-11-15 06:55:00
1:15 AM,23.0,23.0,100,30.05,10.0,WNW,13.8,-,N/A,,Clear,300,2012-11-15 07:15:00
1:35 AM,23.0,23.0,100,30.06,10.0,NW,13.8,-,N/A,,Clear,310,2012-11-15 07:35:00
1:55 AM,23.0,21.2,93,30.08,10.0,NW,13.8,-,N/A,,Clear,310,2012-11-15 07:55:00
2:15 AM,23.0,21.2,93,30.09,10.0,NW,12.7,-,N/A,,Clear,310,2012-11-15 08:15:00
2:35 AM,21.2,19.4,93,30.11,10.0,NW,13.8,-,N/A,,Clear,310,2012-11-15 08:35:00
2:55 AM,19.4,17.6,93,30.13,10.0,NW,10.4,-,N/A,,Clear,310,2012-11-15 08:55:00
3:15 AM,19.4,17.6,93,30.14,10.0,NW,11.5,-,N/A,,Clear,310,2012-11-15 09:15:00
3:35 AM,23.0,19.4,86,30.15,10.0,NNW,16.1,-,N/A,,Clear,330,2012-11-15 09:35:00
3:55 AM,23.0,19.4,86,30.17,10.0,NW,10.4,-,N/A,,Clear,310,2012-11-15 09:55:00
4:15 AM,15.8,14.0,93,30.18,10.0,WNW,8.1,-,N/A,,Clear,300,2012-11-15 10:15:00
4:35 AM,14.0,14.0,100,30.19,10.0,WNW,11.5,-,N/A,,Clear,300,2012-11-15 10:35:00
4:55 AM,14.0,12.2,93,30.20,10.0,WNW,10.4,-,N/A,,Clear,300,2012-11-15 10:55:00
5:15 AM,12.2,10.4,92,30.21,10.0,WNW,11.5,-,N/A,,Clear,290,2012-11-15 11:15:00
5:35 AM,14.0,12.2,93,30.22,10.0,WNW,11.5,-,N/A,,Clear,300,2012-11-15 11:35:00
5:55 AM,14.0,10.4,86,30.23,10.0,WNW,10.4,-,N/A,,Clear,290,2012-11-15 11:55:00
6:15 AM,12.2,10.4,92,30.24,10.0,NW,10.4,-,N/A,,Clear,310,2012-11-15 12:15:00
6:35 AM,12.2,10.4,92,30.25,10.0,WNW,11.5,-,N/A,,Clear,300,2012-11-15 12:35:00
6:55 AM,10.4,8.6,92,30.27,10.0,WNW,11.5,-,N/A,,Clear,300,2012-11-15 12:55:00
7:15 AM,8.6,6.8,92,30.28,10.0,WNW,9.2,-,N/A,,Clear,290,2012-11-15 13:15:00
7:35 AM,8.6,6.8,92,30.30,10.0,WNW,9.2,-,N/A,,Clear,290,2012-11-15 13:35:00
7:55 AM,6.8,5.0,92,30.30,10.0,WNW,9.2,-,N/A,,Clear,290,2012-11-15 13:55:00
8:15 AM,5.0,3.2,92,30.31,10.0,West,8.1,-,N/A,,Clear,270,2012-11-15 14:15:00
8:35 AM,6.8,3.2,85,30.32,10.0,West,8.1,-,N/A,,Clear,280,2012-11-15 14:35:00
8:55 AM,6.8,5.0,92,30.33,10.0,West,5.8,-,N/A,,Clear,280,2012-11-15 14:55:00
9:15 AM,8.6,5.0,85,30.34,10.0,West,5.8,-,N/A,,Clear,270,2012-11-15 15:15:00
9:35 AM,10.4,6.8,85,30.35,10.0,SW,3.5,-,N/A,,Clear,230,2012-11-15 15:35:00
9:55 AM,14.0,10.4,86,30.36,10.0,West,6.9,-,N/A,,Clear,270,2012-11-15 15:55:00
10:15 AM,14.0,12.2,93,30.37,10.0,WNW,5.8,-,N/A,,Clear,290,2012-11-15 16:15:00
10:35 AM,15.8,14.0,93,30.38,10.0,WNW,4.6,-,N/A,,Clear,300,2012-11-15 16:35:00
10:55 AM,17.6,15.8,93,30.39,10.0,WNW,4.6,-,N/A,,Clear,300,2012-11-15 16:55:00
11:15 AM,19.4,15.8,86,30.40,10.0,West,5.8,-,N/A,,Clear,280,2012-11-15 17:15:00
11:35 AM,19.4,17.6,93,30.40,10.0,WNW,5.8,-,N/A,,Clear,290,2012-11-15 17:35:00
11:55 AM,19.4,17.6,93,30.40,10.0,West,5.8,-,N/A,,Clear,260,2012-11-15 17:55:00
12:15 PM,21.2,17.6,86,30.40,10.0,WSW,4.6,-,N/A,,Clear,250,2012-11-15 18:15:00
12:35 PM,21.2,17.6,86,30.40,10.0,West,4.6,-,N/A,,Clear,260,2012-11-15 18:35:00
12:55 PM,21.2,17.6,86,30.40,10.0,West,5.8,-,N/A,,Clear,260,2012-11-15 18:55:00
1:15 PM,21.2,19.4,93,30.40,10.0,WSW,4.6,-,N/A,,Clear,240,2012-11-15 19:15:00
1:35 PM,21.2,17.6,86,30.39,10.0,Calm,Calm,-,N/A,,Clear,0,2012-11-15 19:35:00
1:55 PM,23.0,19.4,86,30.39,10.0,SW,3.5,-,N/A,,Partly Cloudy,230,2012-11-15 19:55:00
2:15 PM,23.0,19.4,86,30.38,10.0,SSW,4.6,-,N/A,,Partly Cloudy,210,2012-11-15 20:15:00
2:35 PM,23.0,19.4,86,30.38,10.0,SSW,4.6,-,N/A,,Clear,210,2012-11-15 20:35:00
2:55 PM,23.0,19.4,86,30.39,10.0,WSW,4.6,-,N/A,,Clear,240,2012-11-15 20:55:00
3:15 PM,23.0,19.4,86,30.39,10.0,SW,3.5,-,N/A,,Clear,220,2012-11-15 21:15:00
3:35 PM,23.0,19.4,86,30.39,10.0,Calm,Calm,-,N/A,,Clear,0,2012-11-15 21:35:00
3:55 PM,23.0,19.4,86,30.39,10.0,South,4.6,-,N/A,,Clear,180,2012-11-15 21:55:00
4:15 PM,19.4,17.6,93,30.39,10.0,SE,3.5,-,N/A,,Clear,140,2012-11-15 22:15:00
4:35 PM,17.6,15.8,93,30.39,7.0,SSE,5.8,-,N/A,,Clear,150,2012-11-15 22:35:00
4:55 PM,15.8,15.8,100,30.38,5.0,SSE,5.8,-,N/A,,Clear,160,2012-11-15 22:55:00
5:15 PM,15.8,14.0,93,30.37,6.0,South,6.9,-,N/A,,Clear,170,2012-11-15 23:15:00
5:35 PM,14.0,12.2,93,30.37,9.0,South,8.1,-,N/A,,Clear,170,2012-11-15 23:35:00
5:55 PM,15.8,14.0,93,30.37,10.0,South,9.2,-,N/A,,Clear,180,2012-11-15 23:55:00
6:15 PM,14.0,12.2,93,30.38,10.0,South,9.2,-,N/A,,Clear,180,2012-11-16 00:15:00
6:35 PM,14.0,12.2,93,30.38,10.0,South,8.1,-,N/A,,Clear,180,2012-11-16 00:35:00
6:55 PM,14.0,14.0,100,30.37,10.0,South,9.2,-,N/A,,Clear,180,2012-11-16 00:55:00
7:15 PM,15.8,15.8,100,30.36,10.0,South,10.4,-,N/A,,Clear,180,2012-11-16 01:15:00
7:35 PM,12.2,10.4,92,30.36,10.0,South,9.2,-,N/A,,Clear,170,2012-11-16 01:35:00
7:55 PM,15.8,14.0,93,30.36,10.0,South,10.4,-,N/A,,Clear,190,2012-11-16 01:55:00
8:15 PM,15.8,14.0,93,30.35,10.0,South,8.1,-,N/A,,Clear,180,2012-11-16 02:15:00
8:35 PM,14.0,14.0,100,30.35,10.0,South,9.2,-,N/A,,Clear,170,2012-11-16 02:35:00
8:55 PM,12.2,10.4,92,30.35,10.0,South,9.2,-,N/A,,Clear,170,2012-11-16 02:55:00
9:15 PM,15.8,15.8,100,30.35,10.0,South,9.2,-,N/A,,Clear,170,2012-11-16 03:15:00
9:35 PM,14.0,14.0,100,30.34,10.0,South,10.4,-,N/A,,Clear,170,2012-11-16 03:35:00
9:55 PM,15.8,14.0,93,30.34,10.0,South,11.5,-,N/A,,Clear,170,2012-11-16 03:55:00
10:15 PM,15.8,14.0,93,30.34,10.0,South,9.2,-,N/A,,Clear,170,2012-11-16 04:15:00
10:35 PM,15.8,14.0,93,30.33,10.0,SSE,10.4,-,N/A,,Clear,160,2012-11-16 04:35:00
10:55 PM,14.0,14.0,100,30.33,10.0,SSE,9.2,-,N/A,,Clear,150,2012-11-16 04:55:00
11:15 PM,14.0,12.2,93,30.32,10.0,SSE,8.1,-,N/A,,Clear,160,2012-11-16 05:15:00
11:35 PM,14.0,14.0,100,30.32,10.0,South,6.9,-,N/A,,Clear,180,2012-11-16 05:35:00
11:55 PM,15.8,15.8,100,30.32,10.0,South,6.9,-,N/A,,Clear,180,2012-11-16 05:55:00